Location: Carbonear
(47.7333°N, 53.2500°W)
Time: 13:39:06
(UTC+00:00)

Oscar 11 - Pass Details

Date: 05 December 2022
Orbit: 611 x 621 km, 97.6° (Epoch: 30 January)

Event Time Altitude Azimuth Distance (km) Brightness Sun altitude
Rises 08:29:08 0° 11° (N) 2,889 10.6 -25.3°
Reaches altitude 10° 08:31:19 10° 10° (N) 1,979 9.7 -25.0°
Enters shadow 08:32:38 20° 8° (N) 1,454 8.9 -24.8°
